IRVINE01 (43693 NORAD) Tracking and Keplerian Element Data

This shows tracking and keplerian element data for the satellite.

Feedback or suggestion? Click here.




ElementValue
Catalog43693
NameIRVINE01
Epoch Orbit2975
Epoch Day145.93552311
Epoch Year2019
RAAN333.8081
Inclination85.034
Eccentricity0.0016267
Argument of Perigee282.3926
Mean Anonmoly77.5495
Mean Motion15.21283346
Decay Rate1.401E-05
L11 43693U 18088D 19145.93552311 .00001401 00000-0 60707-4 0 9999
L22 43693 85.0340 333.8081 0016267 282.3926 77.5495 15.21283346 29752

Live tracking and technical data element details for IRVINE01 (NORAD 43693). IRVINE01 can be tracked NOW for your location showing map with azimuth and elevation plus other details from your city location.

Track the satellite on the map from your city or location and see movement details for azimuth, elevation, latitude, longitude, range, height, and movement on the map or in text.







IsCatalogInMostPopularTable: catalog: 43693, numindb: 104
Update: records affected: 1



GetName: 43693 IRVINE01

Hit Count: updated at: Sun, 26 May 2019 19:14:59 GMT